• In India
  • List of Countries
  • For 7 days
  • Water Temperature
  • Satellite Maps
  • Weather Map
  • Weather Widgets
  • user-avatar
    Login

    Hourly Weather Zieleniec

    Today, 18 June, Monday

    Time Temperature Precipitation Wind Pressure Humidity
    00:00 +13°C° 0 mm 1 mps 679 mmHg 83%
    01:00 +12°C° 0 mm 2 mps 679 mmHg 87%
    02:00 +12°C° 0 mm 2 mps 679 mmHg 89%
    03:00 +10°C° 0 mm 2 mps 679 mmHg 91%
    04:00 +10°C° 0 mm 2 mps 679 mmHg 93%
    05:00 +12°C° 0 mm 2 mps 680 mmHg 89%
    06:00 +12°C° 0 mm 3 mps 680 mmHg 86%
    07:00 +13°C° 0 mm 3 mps 681 mmHg 82%
    08:00 +14°C° 0.1 mm 3 mps 681 mmHg 78%
    09:00 +16°C° 0.1 mm 3 mps 681 mmHg 73%
    10:00 +17°C° 0.1 mm 4 mps 682 mmHg 69%
    11:00 +18°C° 0 mm 3 mps 682 mmHg 65%
    12:00 +18°C° 0 mm 3 mps 682 mmHg 62%
    13:00 +19°C° 0 mm 3 mps 682 mmHg 58%
    14:00 +19°C° 0 mm 3 mps 682 mmHg 59%
    15:00 +19°C° 0 mm 3 mps 682 mmHg 60%
    16:00 +19°C° 0 mm 3 mps 682 mmHg 61%
    17:00 +18°C° 0 mm 3 mps 682 mmHg 67%
    18:00 +17°C° 0 mm 2 mps 682 mmHg 73%
    19:00 +16°C° 0 mm 2 mps 682 mmHg 79%
    20:00 +14°C° 0 mm 2 mps 682 mmHg 81%
    21:00 +13°C° 0 mm 1 mps 682 mmHg 83%
    22:00 +11°C° 0 mm 1 mps 682 mmHg 86%
    23:00 +11°C° 0 mm 1 mps 682 mmHg 86%

    Tomorrow, 19 June, Tuesday

    Time Temperature Precipitation Wind Pressure Humidity
    00:00 +10°C° 0 mm 1 mps 682 mmHg 86%
    01:00 +10°C° 0 mm 1 mps 682 mmHg 87%
    02:00 +10°C° 0 mm 1 mps 682 mmHg 88%
    03:00 +9°C° 0 mm 1 mps 682 mmHg 88%
    04:00 +9°C° 0 mm 1 mps 682 mmHg 89%
    05:00 +11°C° 0 mm 1 mps 682 mmHg 84%
    06:00 +13°C° 0 mm 1 mps 683 mmHg 80%
    07:00 +14°C° 0 mm 1 mps 684 mmHg 75%
    08:00 +16°C° 0 mm 2 mps 684 mmHg 72%
    09:00 +17°C° 0 mm 2 mps 684 mmHg 69%
    10:00 +18°C° 0 mm 2 mps 684 mmHg 65%
    11:00 +19°C° 0.1 mm 2 mps 684 mmHg 64%
    12:00 +19°C° 0.1 mm 2 mps 684 mmHg 63%
    13:00 +20°C° 0.1 mm 2 mps 684 mmHg 61%
    14:00 +20°C° 0.1 mm 2 mps 684 mmHg 63%
    15:00 +20°C° 0.1 mm 2 mps 684 mmHg 64%
    16:00 +20°C° 0.1 mm 2 mps 684 mmHg 65%
    17:00 +19°C° 0.1 mm 2 mps 684 mmHg 70%
    18:00 +19°C° 0.1 mm 1 mps 684 mmHg 75%
    19:00 +18°C° 0.1 mm 1 mps 684 mmHg 80%
    20:00 +16°C° 0 mm 1 mps 684 mmHg 82%
    21:00 +15°C° 0 mm 1 mps 683 mmHg 84%
    22:00 +13°C° 0 mm 1 mps 683 mmHg 86%
    23:00 +13°C° 0 mm 1 mps 683 mmHg 87%

    Day after tomorrow, 20 June, Wednesday

    Time Temperature Precipitation Wind Pressure Humidity
    00:00 +12°C° 0 mm 1 mps 683 mmHg 87%
    01:00 +12°C° 0 mm 1 mps 683 mmHg 87%
    02:00 +12°C° 0 mm 1 mps 683 mmHg 87%
    03:00 +11°C° 0 mm 1 mps 683 mmHg 88%
    04:00 +11°C° 0 mm 1 mps 683 mmHg 88%
    05:00 +13°C° 0 mm 1 mps 684 mmHg 84%
    06:00 +15°C° 0 mm 1 mps 684 mmHg 80%
    07:00 +16°C° 0 mm 1 mps 685 mmHg 75%
    08:00 +19°C° 0 mm 1 mps 685 mmHg 70%
    09:00 +20°C° 0 mm 1 mps 685 mmHg 65%
    10:00 +22°C° 0 mm 1 mps 685 mmHg 60%
    11:00 +22°C° 0 mm 1 mps 685 mmHg 59%
    12:00 +23°C° 0 mm 1 mps 685 mmHg 57%
    13:00 +23°C° 0 mm 1 mps 685 mmHg 55%
    14:00 +23°C° 0 mm 1 mps 685 mmHg 56%
    15:00 +23°C° 0 mm 1 mps 684 mmHg 56%
    16:00 +23°C° 0 mm 1 mps 684 mmHg 56%
    17:00 +22°C° 0 mm 1 mps 684 mmHg 62%
    18:00 +21°C° 0 mm 1 mps 683 mmHg 69%
    19:00 +20°C° 0 mm 1 mps 683 mmHg 75%
    20:00 +19°C° 0 mm 1 mps 682 mmHg 78%
    21:00 +16°C° 0 mm 1 mps 682 mmHg 81%
    22:00 +15°C° 0 mm 1 mps 682 mmHg 85%
    23:00 +15°C° 0 mm 1 mps 682 mmHg 86%

    21 June, Thursday

    Time Temperature Precipitation Wind Pressure Humidity
    00:00 +14°C° 0 mm 1 mps 681 mmHg 86%
    01:00 +14°C° 0 mm 1 mps 681 mmHg 87%
    02:00 +14°C° 0 mm 1 mps 680 mmHg 87%
    03:00 +13°C° 0 mm 1 mps 680 mmHg 87%
    04:00 +13°C° 0 mm 1 mps 679 mmHg 88%
    05:00 +15°C° 0 mm 1 mps 680 mmHg 82%
    06:00 +18°C° 0 mm 1 mps 680 mmHg 77%
    07:00 +20°C° 0 mm 1 mps 680 mmHg 72%
    08:00 +20°C° 0 mm 2 mps 680 mmHg 69%
    09:00 +21°C° 0 mm 2 mps 680 mmHg 65%
    10:00 +22°C° 0 mm 3 mps 680 mmHg 62%
    11:00 +24°C° 0.6 mm 3 mps 679 mmHg 62%
    12:00 +24°C° 0.6 mm 3 mps 678 mmHg 63%
    13:00 +25°C° 0.6 mm 4 mps 678 mmHg 63%
    14:00 +25°C° 0.6 mm 3 mps 677 mmHg 64%
    15:00 +24°C° 0.6 mm 3 mps 677 mmHg 65%
    16:00 +24°C° 0.6 mm 3 mps 676 mmHg 67%
    17:00 +22°C° 0.6 mm 3 mps 676 mmHg 72%
    18:00 +21°C° 0.6 mm 3 mps 675 mmHg 78%
    19:00 +19°C° 0.6 mm 2 mps 675 mmHg 84%
    20:00 +18°C° 0.2 mm 3 mps 675 mmHg 86%
    21:00 +15°C° 0.2 mm 4 mps 675 mmHg 89%
    22:00 +13°C° 0.2 mm 5 mps 675 mmHg 92%
    23:00 +12°C° 0 mm 5 mps 676 mmHg 91%

    22 June, Friday

    Time Temperature Precipitation Wind Pressure Humidity
    00:00 +10°C° 0 mm 5 mps 676 mmHg 90%
    01:00 +8°C° 0 mm 5 mps 676 mmHg 89%
    02:00 +7°C° 0 mm 4 mps 676 mmHg 90%
    03:00 +6°C° 0 mm 4 mps 676 mmHg 90%
    04:00 +4°C° 0 mm 3 mps 676 mmHg 90%
    05:00 +5°C° 0 mm 4 mps 677 mmHg 86%
    06:00 +5°C° 0 mm 4 mps 677 mmHg 82%
    07:00 +6°C° 0 mm 5 mps 678 mmHg 77%
    08:00 +6°C° 0 mm 5 mps 678 mmHg 75%
    09:00 +6°C° 0 mm 5 mps 679 mmHg 72%
    10:00 +7°C° 0 mm 5 mps 679 mmHg 69%
    11:00 +7°C° 0 mm 6 mps 679 mmHg 66%
    12:00 +8°C° 0 mm 6 mps 679 mmHg 63%
    13:00 +8°C° 0 mm 6 mps 679 mmHg 60%
    14:00 +8°C° 0 mm 6 mps 679 mmHg 60%
    15:00 +9°C° 0 mm 5 mps 679 mmHg 60%
    16:00 +9°C° 0 mm 5 mps 679 mmHg 60%
    17:00 +8°C° 0.1 mm 5 mps 679 mmHg 64%
    18:00 +8°C° 0.1 mm 4 mps 678 mmHg 68%
    19:00 +7°C° 0.1 mm 4 mps 678 mmHg 72%
    20:00 +6°C° 0 mm 4 mps 678 mmHg 75%
    21:00 +5°C° 0 mm 4 mps 678 mmHg 79%
    22:00 +4°C° 0 mm 3 mps 678 mmHg 82%
    23:00 +4°C° 0 mm 3 mps 678 mmHg 83%

    23 June, Saturday

    Time Temperature Precipitation Wind Pressure Humidity
    00:00 +4°C° 0 mm 4 mps 678 mmHg 85%
    01:00 +4°C° 0 mm 4 mps 678 mmHg 86%
    02:00 +4°C° 0 mm 4 mps 678 mmHg 86%
    03:00 +4°C° 0 mm 4 mps 678 mmHg 85%
    04:00 +4°C° 0 mm 4 mps 678 mmHg 84%
    05:00 +5°C° 0.1 mm 5 mps 678 mmHg 84%
    06:00 +5°C° 0.1 mm 5 mps 678 mmHg 83%
    07:00 +5°C° 0.1 mm 5 mps 678 mmHg 83%
    08:00 +6°C° 0.2 mm 5 mps 679 mmHg 78%
    09:00 +7°C° 0.2 mm 6 mps 679 mmHg 74%
    10:00 +8°C° 0.2 mm 6 mps 679 mmHg 69%
    11:00 +9°C° 0.2 mm 6 mps 679 mmHg 67%
    12:00 +9°C° 0.2 mm 6 mps 679 mmHg 64%
    13:00 +10°C° 0.2 mm 6 mps 679 mmHg 62%
    14:00 +10°C° 0.1 mm 6 mps 679 mmHg 62%
    15:00 +10°C° 0.1 mm 5 mps 679 mmHg 61%
    16:00 +10°C° 0.1 mm 5 mps 679 mmHg 61%
    17:00 +9°C° 0.1 mm 5 mps 679 mmHg 65%
    18:00 +10°C° 0.1 mm 4 mps 679 mmHg 70%
    19:00 +9°C° 0.1 mm 3 mps 679 mmHg 74%
    20:00 +7°C° 0 mm 3 mps 680 mmHg 78%
    21:00 +5°C° 0 mm 3 mps 680 mmHg 82%
    22:00 +4°C° 0 mm 2 mps 680 mmHg 86%
    23:00 +4°C° 0 mm 2 mps 680 mmHg 88%
    Show more